TimeCET,TemperatureF,Dew PointF,Humidity,Sea Level PressureIn,VisibilityMPH,Wind Direction,Wind SpeedMPH,Gust SpeedMPH,PrecipitationIn,Events,Conditions,WindDirDegrees,DateUTC
1:50 AM,53.6,48.2,82,29.89,6.2,West,10.4,-,N/A,,Mostly Cloudy,280,2013-02-20 00:50:00
2:50 AM,51.8,48.2,88,29.89,6.2,WNW,8.1,-,N/A,,Unknown,300,2013-02-20 01:50:00
3:50 AM,51.8,48.2,88,29.89,6.2,WNW,12.7,-,N/A,,Partly Cloudy,290,2013-02-20 02:50:00
4:50 AM,51.8,48.2,88,29.89,6.2,West,8.1,-,N/A,,Unknown,270,2013-02-20 03:50:00
5:50 AM,51.8,46.4,82,29.92,6.2,West,8.1,-,N/A,,Partly Cloudy,280,2013-02-20 04:50:00
6:50 AM,51,46,79,29.93,12,WNW,5.8,,,,Scattered Clouds,290,2013-02-20 05:50:00
6:50 AM,51.8,46.4,82,29.92,6.2,WNW,5.8,-,N/A,,Partly Cloudy,290,2013-02-20 05:50:00
7:50 AM,50.0,46.4,87,29.92,6.2,WNW,5.8,-,N/A,,Mostly Cloudy,290,2013-02-20 06:50:00
8:50 AM,51.8,46.4,82,29.98,6.2,WSW,8.1,-,N/A,,Scattered Clouds,250,2013-02-20 07:50:00
9:50 AM,53.6,46.4,77,29.98,6.2,WSW,5.8,-,N/A,,Partly Cloudy,250,2013-02-20 08:50:00
10:50 AM,55.4,46.4,72,29.98,6.2,West,10.4,-,N/A,,Partly Cloudy,260,2013-02-20 09:50:00
11:50 AM,57.2,44.6,63,30.01,6.2,West,16.1,-,N/A,,Partly Cloudy,270,2013-02-20 10:50:00
12:50 PM,59,42,43,30.01,19,West,15.0,,,,Scattered Clouds,280,2013-02-20 11:50:00
12:50 PM,59.0,42.8,55,30.01,6.2,West,15.0,-,N/A,,Partly Cloudy,280,2013-02-20 11:50:00
1:50 PM,59.0,39.2,48,30.01,6.2,West,16.1,-,N/A,,Partly Cloudy,270,2013-02-20 12:50:00
2:50 PM,60.8,42.8,52,30.01,6.2,West,15.0,-,N/A,,Partly Cloudy,270,2013-02-20 13:50:00
4:50 PM,60.8,42.8,52,30.01,6.2,West,15.0,-,N/A,,Partly Cloudy,260,2013-02-20 15:50:00
5:50 PM,59.0,42.8,55,30.01,6.2,West,15.0,-,N/A,,Partly Cloudy,260,2013-02-20 16:50:00
6:50 PM,58,44,49,30.04,19,West,13.8,,,,Scattered Clouds,260,2013-02-20 17:50:00
6:50 PM,59.0,44.6,59,30.04,6.2,West,13.8,-,N/A,,Scattered Clouds,260,2013-02-20 17:50:00
7:50 PM,57.2,44.6,63,30.04,6.2,West,13.8,-,N/A,,Scattered Clouds,260,2013-02-20 18:50:00
8:50 PM,55.4,46.4,72,30.06,6.2,West,11.5,-,N/A,,Scattered Clouds,270,2013-02-20 19:50:00
9:50 PM,55.4,48.2,77,30.06,6.2,West,6.9,-,N/A,,Scattered Clouds,280,2013-02-20 20:50:00
10:50 PM,55.4,48.2,77,30.06,6.2,West,6.9,-,N/A,,Scattered Clouds,270,2013-02-20 21:50:00
11:50 PM,53.6,48.2,82,30.06,6.2,West,4.6,-,N/A,,Mostly Cloudy,260,2013-02-20 22:50:00